{"data":{"norad_id":64701,"epoch":"2026-09-20T04:12:15.488928Z","epoch_age_seconds":155917,"freshness":"FRESH","line1":"1 64701U 25142F   26263.17517927  .00011191  00000+0  39302-3 0  9992","line2":"2 64701  70.0004 181.6383 0003124 270.4311  89.6506 15.29591868 68652","mean_motion":15.29591868,"eccentricity":0.0003124,"inclination_deg":70.0004,"raan_deg":181.6383,"arg_perigee_deg":270.4311,"mean_anomaly_deg":89.6506,"bstar":0.00039302,"rev_number":6865,"period_min":94.142759916922,"perigee_km":474.88988889908,"apogee_km":479.17299814259,"semimajor_km":6855.1684435208,"source":"CELESTRAK","updated_at":"2026-09-21T09:00:35.403717Z"}}